| time (UTC) | temp F | wind direction | speed MPH | gust MPH | rain 1hr in | rain 24hr in | rain mn in | humidity % | barometer mb |
| 20260902003743 | 60 | 0.0 | 0.0 | 0.00 | 0.00 | 0.00 | 57 | 1022.6 | |
| 20260902000257 | 60 | 0.0 | 0.0 | 0.00 | 0.00 | 0.00 | 57 | 1022.6 | |
| 20260901235256 | 61 | 0.0 | 0.0 | 0.00 | 0.00 | 0.00 | 57 | 1022.5 | |
| 20260901234256 | 61 | 0.0 | 0.0 | 0.00 | 0.00 | 0.00 | 57 | 1022.5 | |
| 20260901233256 | 61 | 0.0 | 0.0 | 0.00 | 0.00 | 0.00 | 56 | 1022.6 | |
| 20260901232256 | 61 | 0.0 | 0.0 | 0.00 | 0.00 | 0.00 | 56 | 1022.6 | |
| 20260901230032 | 62 | 0.0 | 0.0 | 0.00 | 0.00 | 0.00 | 55 | 1022.7 | |
| 20260901223808 | 62 | 0.0 | 0.0 | 0.00 | 0.00 | 0.00 | 54 | 1022.7 | |
| 20260901222809 | 62 | 0.0 | 0.0 | 0.00 | 0.00 | 0.00 | 54 | 1022.7 | |
| 20260901221809 | 62 | 0.0 | 0.0 | 0.00 | 0.00 | 0.00 | 54 | 1022.7 | |
| 20260901220809 | 62 | 0.0 | 0.0 | 0.00 | 0.00 | 0.00 | 54 | 1022.8 | |
| 20260901215808 | 62 | 0.0 | 0.0 | 0.00 | 0.00 | 0.00 | 53 | 1022.7 | |
| 20260901213539 | 62 | 0.0 | 0.0 | 0.00 | 0.00 | 0.00 | 53 | 1022.6 | |
| 20260901211316 | 63 | 0.0 | 0.0 | 0.00 | 0.00 | 0.00 | 51 | 1022.6 | |
| 20260901205051 | 64 | 0.0 | 0.0 | 0.00 | 0.00 | 0.00 | 51 | 1022.5 | |
| 20260901204051 | 64 | 0.0 | 0.0 | 0.00 | 0.00 | 0.00 | 50 | 1022.4 | |
| 20260901203051 | 64 | 0.0 | 0.0 | 0.00 | 0.00 | 0.00 | 50 | 1022.4 | |
| 20260901202051 | 64 | 0.0 | 0.0 | 0.00 | 0.00 | 0.00 | 50 | 1022.5 | |
| 20260901201051 | 64 | 0.0 | 0.0 | 0.00 | 0.00 | 0.00 | 50 | 1022.5 | |
| 20260901200051 | 64 | 0.0 | 0.0 | 0.00 | 0.00 | 0.00 | 51 | 1022.4 | |
| 20260901195051 | 64 | 0.0 | 0.0 | 0.00 | 0.00 | 0.00 | 52 | 1022.3 | |
| 20260901194051 | 63 | 0.0 | 0.0 | 0.00 | 0.00 | 0.00 | 52 | 1022.3 | |
| 20260901193051 | 64 | 0.0 | 0.0 | 0.00 | 0.00 | 0.00 | 51 | 1022.2 | |
| 20260901185608 | 63 | 0.0 | 0.0 | 0.00 | 0.00 | 0.00 | 52 | 1022.0 | |
| 20260901184604 | 63 | 0.0 | 0.0 | 0.00 | 0.00 | 0.00 | 51 | 1021.9 | |
| 20260901183604 | 64 | 0.0 | 0.0 | 0.00 | 0.00 | 0.00 | 51 | 1021.9 | |
| 20260901182604 | 64 | 0.0 | 0.0 | 0.00 | 0.00 | 0.00 | 50 | 1021.8 | |
| 20260901181604 | 64 | 0.0 | 0.0 | 0.00 | 0.00 | 0.00 | 50 | 1021.8 | |
| 20260901180604 | 64 | 0.0 | 0.0 | 0.00 | 0.00 | 0.00 | 50 | 1021.6 | |
| 20260901173116 | 65 | 0.0 | 0.0 | 0.00 | 0.00 | 0.00 | 46 | 1021.4 | |
| 20260901172116 | 66 | 0.0 | 0.0 | 0.00 | 0.00 | 0.00 | 45 | 1021.4 | |
| 20260901171116 | 67 | 0.0 | 0.0 | 0.00 | 0.00 | 0.00 | 45 | 1021.3 | |
| 20260901170116 | 67 | 0.0 | 0.0 | 0.00 | 0.00 | 0.00 | 43 | 1021.3 | |
| 20260901165116 | 67 | 0.0 | 0.0 | 0.00 | 0.00 | 0.00 | 43 | 1021.3 | |
| 20260901164116 | 68 | 0.0 | 0.0 | 0.00 | 0.00 | 0.00 | 42 | 1021.2 | |
| 20260901163116 | 67 | 0.0 | 0.0 | 0.00 | 0.00 | 0.00 | 42 | 1021.3 | |
| 20260901162116 | 69 | 0.0 | 0.0 | 0.00 | 0.00 | 0.00 | 41 | 1021.3 | |
| 20260901161116 | 69 | 0.0 | 0.0 | 0.00 | 0.00 | 0.00 | 41 | 1021.3 | |
| 20260901160116 | 68 | 0.0 | 0.0 | 0.00 | 0.00 | 0.00 | 41 | 1021.3 | |
| 20260901155116 | 69 | 0.0 | 0.0 | 0.00 | 0.00 | 0.00 | 41 | 1021.3 | |
| 20260901154116 | 69 | 0.0 | 0.0 | 0.00 | 0.00 | 0.00 | 41 | 1021.3 | |
| 20260901153116 | 69 | 0.0 | 0.0 | 0.00 | 0.00 | 0.00 | 42 | 1021.3 | |
| 20260901152116 | 70 | 0.0 | 0.0 | 0.00 | 0.00 | 0.00 | 42 | 1021.3 | |
| 20260901151117 | 68 | 0.0 | 0.0 | 0.00 | 0.00 | 0.00 | 44 | 1021.4 | |
| 20260901150116 | 67 | 0.0 | 0.0 | 0.00 | 0.00 | 0.00 | 43 | 1021.4 | |
| 20260901143852 | 69 | 0.0 | 0.0 | 0.00 | 0.00 | 0.00 | 41 | 1021.4 | |
| 20260901141629 | 68 | 0.0 | 0.0 | 0.00 | 0.00 | 0.00 | 41 | 1021.4 | |
| 20260901140629 | 69 | 0.0 | 0.0 | 0.00 | 0.00 | 0.00 | 40 | 1021.4 | |
| 20260901135629 | 69 | 0.0 | 0.0 | 0.00 | 0.00 | 0.00 | 41 | 1021.4 | |
| 20260901134629 | 67 | 0.0 | 0.0 | 0.00 | 0.00 | 0.00 | 41 | 1021.3 | |
| 20260901133629 | 70 | 0.0 | 0.0 | 0.00 | 0.00 | 0.00 | 41 | 1021.4 | |
| 20260901132629 | 68 | 0.0 | 0.0 | 0.00 | 0.00 | 0.00 | 41 | 1021.3 | |
| 20260901131629 | 67 | 0.0 | 0.0 | 0.00 | 0.00 | 0.00 | 43 | 1021.4 | |
| 20260901124142 | 69 | 0.0 | 0.0 | 0.00 | 0.00 | 0.00 | 43 | 1021.6 | |
| 20260901123142 | 67 | 0.0 | 0.0 | 0.00 | 0.00 | 0.00 | 44 | 1021.5 | |
| 20260901120917 | 67 | 0.0 | 0.0 | 0.00 | 0.00 | 0.00 | 43 | 1021.6 | |
| 20260901115918 | 65 | 0.0 | 0.0 | 0.00 | 0.00 | 0.00 | 44 | 1021.5 | |
| 20260901114917 | 68 | 0.0 | 0.0 | 0.00 | 0.00 | 0.00 | 45 | 1021.6 | |
| 20260901113917 | 67 | 0.0 | 0.0 | 0.00 | 0.00 | 0.00 | 46 | 1021.6 | |
| 20260901112918 | 66 | 0.0 | 0.0 | 0.00 | 0.00 | 0.00 | 47 | 1021.5 | |
| 20260901111923 | 65 | 0.0 | 0.0 | 0.00 | 0.00 | 0.00 | 46 | 1021.6 | |
| 20260901110917 | 69 | 0.0 | 0.0 | 0.00 | 0.00 | 0.00 | 45 | 1021.7 | |
| 20260901105917 | 68 | 0.0 | 0.0 | 0.00 | 0.00 | 0.00 | 45 | 1021.6 | |
| 20260901104918 | 67 | 0.0 | 0.0 | 0.00 | 0.00 | 0.00 | 46 | 1021.7 | |
| 20260901103918 | 65 | 0.0 | 0.0 | 0.00 | 0.00 | 0.00 | 49 | 1021.9 | |
| 20260901102918 | 64 | 0.0 | 0.0 | 0.00 | 0.00 | 0.00 | 50 | 1021.8 | |
| 20260901101917 | 64 | 0.0 | 0.0 | 0.00 | 0.00 | 0.00 | 51 | 1021.7 | |
| 20260901100917 | 65 | 0.0 | 0.0 | 0.00 | 0.00 | 0.00 | 50 | 1021.7 | |
| 20260901095918 | 66 | 0.0 | 0.0 | 0.00 | 0.00 | 0.00 | 52 | 1021.6 | |
| 20260901094918 | 65 | 0.0 | 0.0 | 0.00 | 0.00 | 0.00 | 55 | 1021.6 | |
| 20260901092654 | 65 | 0.0 | 0.0 | 0.00 | 0.00 | 0.00 | 56 | 1021.5 | |
| 20260901091654 | 65 | 0.0 | 0.0 | 0.00 | 0.00 | 0.00 | 58 | 1021.5 | |
| 20260901084206 | 62 | 0.0 | 0.0 | 0.00 | 0.00 | 0.00 | 63 | 1021.3 | |
| 20260901083205 | 62 | 0.0 | 0.0 | 0.00 | 0.00 | 0.00 | 63 | 1021.3 | |
| 20260901082205 | 62 | 0.0 | 0.0 | 0.00 | 0.00 | 0.00 | 62 | 1021.3 | |
| 20260901081206 | 62 | 0.0 | 0.0 | 0.00 | 0.00 | 0.00 | 63 | 1021.3 | |
| 20260901080205 | 62 | 0.0 | 0.0 | 0.00 | 0.00 | 0.00 | 64 | 1021.3 | |
| 20260901075206 | 62 | 0.0 | 0.0 | 0.00 | 0.00 | 0.00 | 64 | 1021.3 | |
| 20260901074205 | 61 | 0.0 | 0.0 | 0.00 | 0.00 | 0.00 | 67 | 1021.1 | |
| 20260901073206 | 60 | 0.0 | 0.0 | 0.00 | 0.00 | 0.00 | 67 | 1021.1 | |
| 20260901072206 | 60 | 0.0 | 0.0 | 0.00 | 0.00 | 0.00 | 66 | 1020.9 | |
| 20260901071206 | 61 | 0.0 | 0.0 | 0.00 | 0.00 | 0.00 | 67 | 1020.7 | |
| 20260901070206 | 60 | 0.0 | 0.0 | 0.00 | 0.00 | 0.00 | 70 | 1020.7 | |
| 20260901065205 | 60 | 0.0 | 0.0 | 0.00 | 0.00 | 0.00 | 70 | 1020.6 | |
| 20260901064206 | 60 | 0.0 | 0.0 | 0.00 | 0.00 | 0.00 | 70 | 1020.7 | |
| 20260901063205 | 59 | 0.0 | 0.0 | 0.00 | 0.00 | 0.00 | 72 | 1020.6 | |
| 20260901062206 | 59 | 0.0 | 0.0 | 0.00 | 0.00 | 0.00 | 72 | 1020.5 | |
| 20260901061206 | 58 | 0.0 | 0.0 | 0.00 | 0.00 | 0.00 | 72 | 1020.6 | |
| 20260901060206 | 58 | 0.0 | 0.0 | 0.00 | 0.00 | 0.00 | 72 | 1020.6 | |
| 20260901055206 | 58 | 0.0 | 0.0 | 0.00 | 0.00 | 0.00 | 73 | 1020.6 | |
| 20260901054205 | 58 | 0.0 | 0.0 | 0.00 | 0.00 | 0.00 | 72 | 1020.5 | |
| 20260901053205 | 57 | 0.0 | 0.0 | 0.00 | 0.00 | 0.00 | 73 | 1020.5 | |
| 20260901052206 | 57 | 0.0 | 0.0 | 0.00 | 0.00 | 0.00 | 74 | 1020.3 | |
| 20260901051206 | 56 | 0.0 | 0.0 | 0.00 | 0.00 | 0.00 | 75 | 1020.1 | |
| 20260901050206 | 56 | 0.0 | 0.0 | 0.00 | 0.00 | 0.00 | 76 | 1020.1 | |
| 20260901043942 | 56 | 0.0 | 0.0 | 0.00 | 0.00 | 0.00 | 77 | 1020.1 | |
| 20260901042942 | 56 | 0.0 | 0.0 | 0.00 | 0.00 | 0.00 | 77 | 1020.1 | |
| 20260901040718 | 56 | 0.0 | 0.0 | 0.00 | 0.00 | 0.00 | 77 | 1020.0 | |
| 20260901035718 | 56 | 0.0 | 0.0 | 0.00 | 0.00 | 0.00 | 76 | 1020.0 | |
| 20260901034718 | 56 | 0.0 | 0.0 | 0.00 | 0.00 | 0.00 | 75 | 1019.9 | |
| 20260901033718 | 56 | 0.0 | 0.0 | 0.00 | 0.00 | 0.00 | 75 | 1019.9 | |
| 20260901032718 | 56 | 0.0 | 0.0 | 0.00 | 0.00 | 0.00 | 74 | 1020.0 | |
| 20260901031718 | 56 | 0.0 | 0.0 | 0.00 | 0.00 | 0.00 | 74 | 1019.9 | |
| 20260901030718 | 56 | 0.0 | 0.0 | 0.00 | 0.00 | 0.00 | 74 | 1019.9 | |
| 20260901025718 | 57 | 0.0 | 0.0 | 0.00 | 0.00 | 0.00 | 73 | 1019.8 | |
| 20260901024718 | 57 | 0.0 | 0.0 | 0.00 | 0.00 | 0.00 | 72 | 1019.7 | |
| 20260901022454 | 57 | 0.0 | 0.0 | 0.00 | 0.00 | 0.00 | 72 | 1019.8 | |
| 20260901021453 | 58 | 0.0 | 0.0 | 0.00 | 0.00 | 0.00 | 71 | 1019.7 | |
| 20260901020454 | 58 | 0.0 | 0.0 | 0.00 | 0.00 | 0.00 | 70 | 1019.6 | |
| 20260901015454 | 58 | 0.0 | 0.0 | 0.00 | 0.00 | 0.00 | 69 | 1019.4 | |
| 20260901014454 | 58 | 0.0 | 0.0 | 0.00 | 0.00 | 0.00 | 68 | 1019.3 | |
| 20260901013454 | 59 | 0.0 | 0.0 | 0.00 | 0.00 | 0.00 | 68 | 1019.4 | |
| 20260901012454 | 59 | 0.0 | 0.0 | 0.00 | 0.00 | 0.00 | 67 | 1019.4 | |
| 20260901011454 | 59 | 0.0 | 0.0 | 0.00 | 0.00 | 0.00 | 67 | 1019.4 | |
| 20260901010454 | 59 | 0.0 | 0.0 | 0.00 | 0.00 | 0.00 | 67 | 1019.2 |